| time (UTC) | temp F | wind direction | speed MPH | gust MPH | rain 1hr in | rain 24hr in | rain mn in | humidity % | barometer mb |
| 20260504231003 | 51 | 305 | 8.0 | 18.0 | 0.00 | 0.00 | 0.00 | 44 | 1025.8 |
| 20260504230503 | 51 | 300 | 7.0 | 17.0 | 0.00 | 0.00 | 0.00 | 43 | 1025.7 |
| 20260504230003 | 51 | 292 | 5.0 | 11.0 | 0.00 | 0.00 | 0.00 | 42 | 1025.5 |
| 20260504225503 | 51 | 294 | 4.0 | 11.0 | 0.00 | 0.00 | 0.00 | 41 | 1025.4 |
| 20260504225003 | 51 | 306 | 4.0 | 9.0 | 0.00 | 0.00 | 0.00 | 41 | 1025.4 |
| 20260504224503 | 51 | 303 | 5.0 | 10.0 | 0.00 | 0.00 | 0.00 | 42 | 1025.5 |
| 20260504224220 | 51 | 302 | 5.0 | 12.0 | 0.00 | 0.00 | 0.00 | 43 | 1025.4 |
| 20260504223503 | 51 | 305 | 4.0 | 12.0 | 0.00 | 0.00 | 0.00 | 44 | 1025.5 |
| 20260504223003 | 50 | 303 | 6.0 | 12.0 | 0.00 | 0.00 | 0.00 | 45 | 1025.6 |
| 20260504222503 | 50 | 307 | 7.0 | 15.0 | 0.00 | 0.00 | 0.00 | 45 | 1025.7 |
| 20260504222217 | 50 | 307 | 7.0 | 15.0 | 0.00 | 0.00 | 0.00 | 45 | 1025.6 |
| 20260504221503 | 51 | 294 | 7.0 | 14.0 | 0.00 | 0.00 | 0.00 | 44 | 1025.8 |
| 20260504221003 | 52 | 288 | 8.0 | 14.0 | 0.00 | 0.00 | 0.00 | 42 | 1025.7 |
| 20260504220503 | 52 | 287 | 8.0 | 22.0 | 0.00 | 0.00 | 0.00 | 39 | 1025.6 |
| 20260504220003 | 53 | 291 | 7.0 | 22.0 | 0.00 | 0.00 | 0.00 | 37 | 1025.8 |
| 20260504215503 | 53 | 310 | 5.0 | 16.0 | 0.00 | 0.00 | 0.00 | 37 | 1025.8 |
| 20260504215003 | 53 | 325 | 6.0 | 16.0 | 0.00 | 0.00 | 0.00 | 36 | 1026.0 |
| 20260504214503 | 52 | 320 | 6.0 | 16.0 | 0.00 | 0.00 | 0.00 | 35 | 1026.0 |
| 20260504214004 | 52 | 316 | 7.0 | 19.0 | 0.00 | 0.00 | 0.00 | 38 | 1026.2 |
| 20260504213503 | 52 | 315 | 9.0 | 19.0 | 0.00 | 0.00 | 0.00 | 37 | 1026.1 |
| 20260504213003 | 52 | 315 | 6.0 | 15.0 | 0.00 | 0.00 | 0.00 | 37 | 1026.1 |
| 20260504212720 | 52 | 314 | 6.0 | 16.0 | 0.00 | 0.00 | 0.00 | 36 | 1026.1 |
| 20260504212003 | 53 | 282 | 6.0 | 16.0 | 0.00 | 0.00 | 0.00 | 36 | 1026.3 |
| 20260504211503 | 53 | 261 | 6.0 | 18.0 | 0.00 | 0.00 | 0.00 | 36 | 1026.4 |
| 20260504211003 | 53 | 303 | 7.0 | 18.0 | 0.00 | 0.00 | 0.00 | 36 | 1026.2 |
| 20260504210503 | 53 | 305 | 7.0 | 20.0 | 0.00 | 0.00 | 0.00 | 37 | 1026.5 |
| 20260504210003 | 53 | 287 | 6.0 | 20.0 | 0.00 | 0.00 | 0.00 | 36 | 1026.7 |
| 20260504205503 | 52 | 304 | 5.0 | 12.0 | 0.00 | 0.00 | 0.00 | 37 | 1026.6 |
| 20260504205003 | 52 | 323 | 5.0 | 16.0 | 0.00 | 0.00 | 0.00 | 38 | 1026.7 |
| 20260504204503 | 51 | 298 | 5.0 | 16.0 | 0.00 | 0.00 | 0.00 | 37 | 1026.6 |
| 20260504204216 | 51 | 278 | 5.0 | 14.0 | 0.00 | 0.00 | 0.00 | 38 | 1026.7 |
| 20260504203503 | 51 | 266 | 6.0 | 15.0 | 0.00 | 0.00 | 0.00 | 39 | 1027.1 |
| 20260504203003 | 51 | 264 | 4.0 | 15.0 | 0.00 | 0.00 | 0.00 | 41 | 1027.3 |
| 20260504202504 | 51 | 270 | 4.0 | 18.0 | 0.00 | 0.00 | 0.00 | 43 | 1027.2 |
| 20260504202003 | 51 | 193 | 5.0 | 18.0 | 0.00 | 0.00 | 0.00 | 43 | 1027.3 |
| 20260504201503 | 51 | 145 | 4.0 | 10.0 | 0.00 | 0.00 | 0.00 | 44 | 1027.2 |
| 20260504201003 | 51 | 132 | 5.0 | 18.0 | 0.00 | 0.00 | 0.00 | 47 | 1027.3 |
| 20260504200503 | 51 | 121 | 7.0 | 18.0 | 0.00 | 0.00 | 0.00 | 46 | 1027.4 |
| 20260504200003 | 52 | 127 | 7.0 | 13.0 | 0.00 | 0.00 | 0.00 | 49 | 1027.4 |
| 20260504195503 | 52 | 128 | 6.0 | 12.0 | 0.00 | 0.00 | 0.00 | 49 | 1027.6 |
| 20260504195003 | 52 | 123 | 7.0 | 14.0 | 0.00 | 0.00 | 0.00 | 50 | 1027.5 |
| 20260504194503 | 52 | 135 | 6.0 | 14.0 | 0.00 | 0.00 | 0.00 | 54 | 1027.5 |
| 20260504194003 | 51 | 156 | 6.0 | 12.0 | 0.00 | 0.00 | 0.00 | 52 | 1027.7 |
| 20260504193503 | 52 | 200 | 6.0 | 13.0 | 0.00 | 0.00 | 0.00 | 49 | 1027.7 |
| 20260504193218 | 53 | 249 | 5.0 | 13.0 | 0.00 | 0.00 | 0.00 | 46 | 1027.8 |
| 20260504192503 | 53 | 305 | 5.0 | 13.0 | 0.00 | 0.00 | 0.00 | 38 | 1027.6 |
| 20260504192003 | 53 | 290 | 5.0 | 13.0 | 0.00 | 0.00 | 0.00 | 37 | 1027.8 |
| 20260504191717 | 53 | 289 | 6.0 | 15.0 | 0.00 | 0.00 | 0.00 | 40 | 1027.9 |
| 20260504191003 | 51 | 308 | 9.0 | 16.0 | 0.00 | 0.00 | 0.00 | 39 | 1027.8 |
| 20260504190504 | 51 | 312 | 8.0 | 15.0 | 0.00 | 0.00 | 0.00 | 42 | 1027.8 |
| 20260504190003 | 51 | 308 | 6.0 | 17.0 | 0.00 | 0.00 | 0.00 | 44 | 1027.8 |
| 20260504185503 | 50 | 301 | 8.0 | 17.0 | 0.00 | 0.00 | 0.00 | 46 | 1027.9 |
| 20260504185217 | 49 | 305 | 8.0 | 17.0 | 0.00 | 0.00 | 0.00 | 46 | 1028.0 |
| 20260504184720 | 50 | 309 | 9.0 | 22.0 | 0.00 | 0.00 | 0.00 | 46 | 1028.0 |
| 20260504184003 | 50 | 311 | 10.0 | 22.0 | 0.00 | 0.00 | 0.00 | 45 | 1028.2 |
| 20260504183503 | 51 | 300 | 7.0 | 19.0 | 0.00 | 0.00 | 0.00 | 47 | 1028.2 |
| 20260504183003 | 50 | 309 | 9.0 | 21.0 | 0.00 | 0.00 | 0.00 | 45 | 1028.3 |
| 20260504182503 | 49 | 309 | 11.0 | 37.0 | 0.00 | 0.00 | 0.00 | 45 | 1028.4 |
| 20260504182004 | 49 | 286 | 10.0 | 37.0 | 0.00 | 0.00 | 0.00 | 46 | 1028.6 |
| 20260504181503 | 50 | 270 | 10.0 | 19.0 | 0.00 | 0.00 | 0.00 | 47 | 1028.6 |
| 20260504181003 | 51 | 251 | 9.0 | 19.0 | 0.00 | 0.00 | 0.00 | 37 | 1028.3 |
| 20260504180503 | 52 | 251 | 8.0 | 17.0 | 0.00 | 0.00 | 0.00 | 35 | 1028.1 |
| 20260504180003 | 53 | 287 | 6.0 | 17.0 | 0.00 | 0.00 | 0.00 | 35 | 1028.0 |
| 20260504175719 | 53 | 283 | 5.0 | 14.0 | 0.00 | 0.00 | 0.00 | 35 | 1027.9 |
| 20260504175004 | 52 | 300 | 6.0 | 19.0 | 0.00 | 0.00 | 0.00 | 36 | 1027.9 |
| 20260504174503 | 53 | 314 | 7.0 | 19.0 | 0.00 | 0.00 | 0.00 | 35 | 1028.1 |
| 20260504174003 | 53 | 300 | 6.0 | 15.0 | 0.00 | 0.00 | 0.00 | 36 | 1028.0 |
| 20260504173503 | 53 | 278 | 5.0 | 11.0 | 0.00 | 0.00 | 0.00 | 35 | 1028.2 |
| 20260504173003 | 53 | 287 | 5.0 | 12.0 | 0.00 | 0.00 | 0.00 | 35 | 1028.3 |
| 20260504172503 | 53 | 272 | 5.0 | 12.0 | 0.00 | 0.00 | 0.00 | 36 | 1028.2 |
| 20260504172004 | 52 | 265 | 5.0 | 14.0 | 0.00 | 0.00 | 0.00 | 39 | 1028.2 |
| 20260504171503 | 52 | 273 | 6.0 | 14.0 | 0.00 | 0.00 | 0.00 | 39 | 1028.3 |
| 20260504171221 | 51 | 282 | 5.0 | 14.0 | 0.00 | 0.00 | 0.00 | 40 | 1028.3 |
| 20260504170503 | 50 | 297 | 4.0 | 14.0 | 0.00 | 0.00 | 0.00 | 40 | 1028.5 |
| 20260504170217 | 50 | 297 | 6.0 | 14.0 | 0.00 | 0.00 | 0.00 | 40 | 1028.5 |
| 20260504150503 | 46 | 300 | 5.0 | 13.0 | 0.00 | 0.00 | 0.00 | 52 | 1029.9 |
| 20260504150218 | 45 | 299 | 7.0 | 16.0 | 0.00 | 0.00 | 0.00 | 53 | 1030.0 |
| 20260504141003 | 44 | 302 | 8.0 | 15.0 | 0.00 | 0.00 | 0.00 | 57 | 1030.0 |
| 20260504140503 | 43 | 304 | 9.0 | 17.0 | 0.00 | 0.00 | 0.00 | 57 | 1030.1 |
| 20260504130503 | 43 | 316 | 10.0 | 18.0 | 0.00 | 0.00 | 0.00 | 56 | 1028.9 |
| 20260504110718 | 42 | 211 | 1.0 | 2.0 | 0.00 | 0.00 | 0.00 | 52 | 1029.0 |
| 20260504100503 | 44 | 260 | 4.0 | 13.0 | 0.00 | 0.00 | 0.00 | 45 | 1029.4 |
| 20260504082003 | 46 | 323 | 2.0 | 6.0 | 0.00 | 0.00 | 0.00 | 40 | 1029.5 |
| 20260504081503 | 46 | 316 | 2.0 | 6.0 | 0.00 | 0.00 | 0.00 | 39 | 1029.5 |
| 20260504081003 | 46 | 317 | 2.0 | 6.0 | 0.00 | 0.00 | 0.00 | 41 | 1029.6 |
| 20260504080503 | 46 | 312 | 2.0 | 6.0 | 0.00 | 0.00 | 0.00 | 39 | 1029.7 |
| 20260504080218 | 46 | 299 | 1.0 | 3.0 | 0.00 | 0.00 | 0.00 | 39 | 1029.8 |
| 20260504060219 | 47 | 320 | 3.0 | 12.0 | 0.00 | 0.00 | 0.00 | 35 | 1030.8 |
| 20260504050503 | 48 | 323 | 5.0 | 9.0 | 0.00 | 0.00 | 0.00 | 36 | 1031.2 |
| 20260504050003 | 48 | 317 | 5.0 | 9.0 | 0.00 | 0.00 | 0.00 | 35 | 1031.2 |
| 20260504045503 | 48 | 311 | 4.0 | 9.0 | 0.00 | 0.00 | 0.00 | 35 | 1031.1 |
| 20260504045003 | 48 | 312 | 3.0 | 8.0 | 0.00 | 0.00 | 0.00 | 34 | 1031.2 |
| 20260504044503 | 48 | 317 | 4.0 | 12.0 | 0.00 | 0.00 | 0.00 | 34 | 1031.3 |
| 20260504044003 | 49 | 315 | 4.0 | 12.0 | 0.00 | 0.00 | 0.00 | 33 | 1031.2 |
| 20260504043719 | 49 | 314 | 4.0 | 12.0 | 0.00 | 0.00 | 0.00 | 34 | 1031.2 |
| 20260504043003 | 49 | 317 | 4.0 | 8.0 | 0.00 | 0.00 | 0.00 | 33 | 1031.2 |
| 20260504042503 | 49 | 313 | 4.0 | 8.0 | 0.00 | 0.00 | 0.00 | 33 | 1031.2 |
| 20260504042218 | 49 | 309 | 4.0 | 11.0 | 0.00 | 0.00 | 0.00 | 33 | 1031.2 |
| 20260504041503 | 49 | 306 | 5.0 | 11.0 | 0.00 | 0.00 | 0.00 | 32 | 1031.2 |
| 20260504041003 | 49 | 306 | 4.0 | 11.0 | 0.00 | 0.00 | 0.00 | 32 | 1031.2 |
| 20260504040504 | 50 | 305 | 5.0 | 11.0 | 0.00 | 0.00 | 0.00 | 32 | 1031.2 |
| 20260504040003 | 50 | 310 | 7.0 | 13.0 | 0.00 | 0.00 | 0.00 | 31 | 1031.2 |
| 20260504035718 | 50 | 307 | 8.0 | 13.0 | 0.00 | 0.00 | 0.00 | 31 | 1031.2 |
| 20260504035003 | 50 | 305 | 7.0 | 15.0 | 0.00 | 0.00 | 0.00 | 31 | 1031.3 |
| 20260504034503 | 50 | 313 | 6.0 | 15.0 | 0.00 | 0.00 | 0.00 | 32 | 1031.2 |
| 20260504034003 | 49 | 319 | 4.0 | 10.0 | 0.00 | 0.00 | 0.00 | 32 | 1031.2 |
| 20260504033720 | 49 | 325 | 3.0 | 8.0 | 0.00 | 0.00 | 0.00 | 32 | 1031.1 |
| 20260504033003 | 50 | 317 | 2.0 | 5.0 | 0.00 | 0.00 | 0.00 | 31 | 1031.1 |
| 20260504032721 | 50 | 313 | 2.0 | 5.0 | 0.00 | 0.00 | 0.00 | 31 | 1031.1 |
| 20260504032003 | 50 | 318 | 3.0 | 5.0 | 0.00 | 0.00 | 0.00 | 30 | 1031.1 |
| 20260504031503 | 50 | 329 | 2.0 | 5.0 | 0.00 | 0.00 | 0.00 | 30 | 1031.1 |
| 20260504031003 | 51 | 324 | 2.0 | 7.0 | 0.00 | 0.00 | 0.00 | 29 | 1031.1 |
| 20260504030503 | 51 | 310 | 3.0 | 10.0 | 0.00 | 0.00 | 0.00 | 29 | 1031.0 |
| 20260504030003 | 51 | 301 | 4.0 | 13.0 | 0.00 | 0.00 | 0.00 | 28 | 1030.8 |
| 20260504025503 | 52 | 306 | 4.0 | 13.0 | 0.00 | 0.00 | 0.00 | 28 | 1030.9 |
| 20260504025003 | 52 | 302 | 3.0 | 11.0 | 0.00 | 0.00 | 0.00 | 27 | 1030.9 |
| 20260504024503 | 52 | 296 | 5.0 | 11.0 | 0.00 | 0.00 | 0.00 | 27 | 1030.9 |
| 20260504024218 | 52 | 303 | 5.0 | 12.0 | 0.00 | 0.00 | 0.00 | 27 | 1030.8 |
| 20260504023721 | 52 | 301 | 5.0 | 12.0 | 0.00 | 0.00 | 0.00 | 26 | 1030.8 |
| 20260504023003 | 52 | 300 | 5.0 | 11.0 | 0.00 | 0.00 | 0.00 | 26 | 1030.7 |
| 20260504022504 | 52 | 312 | 5.0 | 11.0 | 0.00 | 0.00 | 0.00 | 26 | 1030.5 |
| 20260504022003 | 53 | 315 | 5.0 | 11.0 | 0.00 | 0.00 | 0.00 | 26 | 1030.5 |
| 20260504021503 | 53 | 312 | 5.0 | 12.0 | 0.00 | 0.00 | 0.00 | 26 | 1030.6 |
| 20260504021003 | 53 | 314 | 5.0 | 14.0 | 0.00 | 0.00 | 0.00 | 26 | 1030.4 |
| 20260504020503 | 53 | 311 | 5.0 | 14.0 | 0.00 | 0.00 | 0.00 | 26 | 1030.4 |
| 20260504020003 | 53 | 306 | 4.0 | 10.0 | 0.00 | 0.00 | 0.00 | 25 | 1030.3 |
| 20260504015503 | 54 | 307 | 5.0 | 10.0 | 0.00 | 0.00 | 0.00 | 25 | 1030.1 |
| 20260504015003 | 54 | 299 | 5.0 | 11.0 | 0.00 | 0.00 | 0.00 | 24 | 1030.1 |
| 20260504014503 | 54 | 302 | 4.0 | 11.0 | 0.00 | 0.00 | 0.00 | 24 | 1030.1 |
| 20260504014003 | 54 | 308 | 6.0 | 19.0 | 0.00 | 0.00 | 0.00 | 23 | 1030.0 |
| 20260504013721 | 54 | 309 | 7.0 | 19.0 | 0.00 | 0.00 | 0.00 | 23 | 1030.0 |
| 20260504013003 | 54 | 307 | 7.0 | 16.0 | 0.00 | 0.00 | 0.00 | 22 | 1030.0 |
| 20260504012503 | 54 | 308 | 6.0 | 15.0 | 0.00 | 0.00 | 0.00 | 22 | 1030.0 |
| 20260504012220 | 55 | 311 | 6.0 | 16.0 | 0.00 | 0.00 | 0.00 | 22 | 1030.0 |
| 20260504011503 | 55 | 303 | 6.0 | 16.0 | 0.00 | 0.00 | 0.00 | 22 | 1030.0 |
| 20260504011003 | 55 | 302 | 5.0 | 12.0 | 0.00 | 0.00 | 0.00 | 21 | 1029.9 |
| 20260504010503 | 56 | 317 | 5.0 | 12.0 | 0.00 | 0.00 | 0.00 | 21 | 1029.9 |
| 20260504010003 | 56 | 308 | 6.0 | 15.0 | 0.00 | 0.00 | 0.00 | 21 | 1029.9 |
| 20260504005503 | 55 | 310 | 6.0 | 15.0 | 0.00 | 0.00 | 0.00 | 21 | 1030.1 |
| 20260504005004 | 55 | 304 | 6.0 | 14.0 | 0.00 | 0.00 | 0.00 | 21 | 1029.9 |
| 20260504004503 | 55 | 302 | 7.0 | 19.0 | 0.00 | 0.00 | 0.00 | 20 | 1029.9 |
| 20260504004003 | 56 | 316 | 7.0 | 19.0 | 0.00 | 0.00 | 0.00 | 20 | 1029.9 |
| 20260504003503 | 56 | 310 | 6.0 | 13.0 | 0.00 | 0.00 | 0.00 | 20 | 1029.9 |
| 20260504003003 | 56 | 304 | 8.0 | 19.0 | 0.00 | 0.00 | 0.00 | 20 | 1030.0 |
| 20260504002503 | 56 | 308 | 8.0 | 19.0 | 0.00 | 0.00 | 0.00 | 20 | 1030.0 |
| 20260504002003 | 56 | 304 | 7.0 | 17.0 | 0.00 | 0.00 | 0.00 | 20 | 1030.0 |
| 20260504001503 | 56 | 301 | 8.0 | 16.0 | 0.00 | 0.00 | 0.00 | 21 | 1030.0 |
| 20260504001003 | 57 | 303 | 7.0 | 16.0 | 0.00 | 0.00 | 0.00 | 20 | 1030.1 |
| 20260504000503 | 57 | 302 | 6.0 | 15.0 | 0.00 | 0.00 | 0.00 | 20 | 1030.1 |
| 20260504000003 | 56 | 303 | 4.0 | 11.0 | 0.00 | 0.00 | 0.00 | 20 | 1030.1 |
| 20260503235503 | 56 | 304 | 4.0 | 11.0 | 0.00 | 0.00 | 0.00 | 21 | 1030.1 |
| 20260503235003 | 56 | 303 | 5.0 | 15.0 | 0.00 | 0.00 | 0.00 | 21 | 1030.1 |
| 20260503234503 | 56 | 303 | 7.0 | 20.0 | 0.00 | 0.00 | 0.00 | 20 | 1030.1 |
| 20260503234003 | 56 | 300 | 8.0 | 20.0 | 0.00 | 0.00 | 0.00 | 20 | 1030.1 |
| 20260503233503 | 56 | 305 | 8.0 | 18.0 | 0.00 | 0.00 | 0.00 | 20 | 1030.3 |
| 20260503233003 | 56 | 305 | 7.0 | 18.0 | 0.00 | 0.00 | 0.00 | 20 | 1030.1 |
| 20260503232718 | 56 | 285 | 6.0 | 16.0 | 0.00 | 0.00 | 0.00 | 21 | 1030.1 |
| 20260503232216 | 56 | 258 | 4.0 | 16.0 | 0.00 | 0.00 | 0.00 | 21 | 1030.1 |